Weather in Popov

Russia / Volgograd Oblast     48°10′55″N   42°51′01″E
temp.,
°C
wind,
m/s
gust,
m/s
humid.,
%
clouds,
%
prec.,
mm/h
press.,
hPa
HPBL,
m
25 july, sun
sun2500:00+22n47480 0.0 1014122
03:00+21nne47540 0.0 1015120
06:00+22ene34560 0.0 1016123
09:00+26ne33391 0.0 1017748
12:00+29e223131 0.0 10172299
15:00+30se222930 0.0 10172388
18:00+30sse113073 0.0 10171023
21:00+25ne59451 0.0 1018228
26 july, mon
mon2600:00+23ne7134819 0.0 1019318
03:00+22ene6124852 0.0 1020306
06:00+22ene71247100 0.0 1020378
09:00+26ene7103982 0.0 1020557
12:00+30e673153 0.0 10201389
15:00+31ene65278 0.0 10182246
18:00+30ne7730100 0.0 10181090
21:00+26ene7133768 0.0 1019373
27 july, tue
tue2700:00+24ene6134085 0.0 1020370
03:00+23ene61240100 0.0 1020392
06:00+22ene61041100 0.0 1021263
09:00+26ene673316 0.0 1021565
12:00+29ene5528100 0.0 10202138
15:00+30ene5525100 0.0 10182569
18:00+29ene5629100 0.0 10181975
21:00+24e353850 0.0 101991
28 july, wed
wed2800:00+22ene22405 0.0 101916
03:00+22ne223863 0.0 101917
06:00+22ne22425 0.0 101931
09:00+26ese22324 0.0 1019675
12:00+29se232841 0.0 10182449
15:00+30se33276 0.0 10162319
18:00+30sse32296 0.0 1015673
21:00+26sw223433 0.0 101629
29 july, thu
thu2900:00+24wsw22357 0.0 101515
03:00+22sw11396 0.0 101511
06:00+23wsw344312 0.0 101575
09:00+29wsw46335 0.0 1015688
12:00+32sw55255 0.0 10132617
15:00+33wsw552655 0.0 10122754
18:00+32wsw552839 0.0 10112486
21:00+28wsw243760 0.0 101280